Content
SEND FEEDBACK

Daily
Averages
Monthly
Summary
United States of America

ABINGTON, MASSACHUSETTS


Home > North America > United States > Massachusetts
Elevation: 157 feet     Latitude: 42 01N     Longitude: 070 55W

WEATHER
 
SELECT A DAY
Number of Records: 133,021;   Date Range: 10/15/98 - 7/26/14
 
SHARE

PRINT THIS DATA

[ ← Previous Day ]
WEATHER ALMANAC - JANUARY 31, 2013
[ Next Day → ]
[ °C ]   °F
Weather ElementAverageHighLow
Temperature45.6 °F59 °F (3:54 am)30 °F (11:54 pm)
Dewpoint34.1 °F55.9 °F (3:54 am)12.9 °F (8:54 pm)
Humidity66.4 %93 % (5:54 am)40 % (3:54 pm)
Barometer29.29 in29.60 in (11:54 pm)29.00 in (8:54 am)
Wind Speed29 mph51.8 mph (5:54 am)
Wind Gust73.6 mph (4:54 am)
Weather ElementAverage
Wind DirectionWSW (244.3 °)

Weather ElementTotal
Precipitation0.42 in
Heating Degree Days20.5 (Base 65)
Averaged from 23 records on January 31, 2013
WEATHER CONDITIONS BREAKOUT
WIND DIRECTION BREAKOUT
WEATHER BY HOUR - JANUARY 31, 2013
[ °C ]   °F
Local TimeTemperatureDewpointHumidityBarometerVisibilityWind DirectionWind SpeedGust SpeedPrecipitationEventsConditions
1:54 AM57.9 °F55.0 °F90 %29.36 inSouth (190°)44.9 mph56.4 mph0.01 in
2:54 AM57.9 °F55.0 °F90 %29.29 inSouth (190°)46.0 mph71.3 mph0.02 in
3:54 AM59.0 °F55.9 °F90 %29.21 inSouth (190°)49.5 mph72.5 mph0.02 in
4:54 AM59.0 °F55.9 °F90 %29.14 inSouth (190°)48.3 mph73.6 mph0.03 in
5:54 AM57.9 °F55.9 °F93 %29.04 inSouth (180°)51.8 mph69.0 mph0.13 in
6:54 AM57.9 °F55.9 °F93 %29.08 inSSW (200°)47.2 mph64.4 mph0.15 in
7:54 AM55.9 °F54.0 °F93 %29.05 inSouth (180°)26.5 mph35.7 mph0.03 in
8:54 AM55.0 °F52.0 °F89 %29.00 inSouth (190°)29.9 mph50.6 mph0.03 in
9:54 AM54.0 °F50.0 °F86 %29.06 inWest (260°)21.9 mph44.9 mph
10:54 AM44.1 °F37.0 °F76 %29.15 inWest (270°)29.9 mph41.4 mph
11:54 AM46.0 °F35.1 °F66 %29.18 inWest (270°)27.6 mph40.3 mph
12:54 PM44.1 °F30.9 °F60 %29.19 inWest (280°)23.0 mph46.0 mph
1:54 PM43.0 °F26.1 °F51 %29.24 inWest (280°)25.3 mph48.3 mph
2:54 PM42.1 °F21.0 °F43 %29.29 inWest (280°)19.6 mph39.1 mph
3:54 PM41.0 °F18.0 °F40 %29.33 inWest (270°)19.6 mph31.1 mph
4:54 PM39.0 °F18.0 °F43 %29.37 inWest (270°)21.9 mph31.1 mph
5:54 PM37.0 °F17.1 °F44 %29.42 inWNW (290°)16.1 mph25.3 mph
6:54 PM37.0 °F17.1 °F44 %29.46 inWest (270°)15.0 mph31.1 mph
7:54 PM35.1 °F15.1 °F44 %29.50 inWest (280°)21.9 mph34.5 mph
8:54 PM34.0 °F12.9 °F42 %29.52 inWest (280°)15.0 mph26.5 mph
9:54 PM32.0 °F16.0 °F52 %29.55 inWest (280°)25.3 mph40.3 mph
10:54 PM30.9 °F15.1 °F52 %29.58 inWest (270°)24.2 mph38.0 mph
11:54 PM30.0 °F16.0 °F56 %29.60 inWest (260°)17.3 mph29.9 mph
Hourly data recorded from KMQE, located miles away from Abington, Massachusetts







STORIES FROM OUR PARTNERS